"Pseudo-MPEC" for P21oJrv

Created 2021 Dec 3 10:07:53 UT using Find_Orb

Click here for an explanation of pseudo-MPECs

 
 Astrometry: 
     P21oJrv  C2021 10 18aWPqlN4G`YxFTZf=;w^k2a,0*`dUjf@w(f%p3?)ef]FRUa)m,.8LF52
     P21oJrv  C2021 10 1881gV@W\,Q3h9_+2hKxq*524\?*jWV\Bw8b.un`b7X!v=hhfx_K3rF52
     P21oJrv  C2021 10 189IkC9SOEQB-_Astrometry=VyYm15Credacted;O#aqC`1nM]aQNF52
     P21oJrv  C2021 11 04*jP8tuC]\39\l,G'Ov*jHN*YvX^/jBSclickt4'pWC-:VFP#,w*5F52
     P21oJrv  C2021 11 04ti%vq0UmBq++;(85@_tcFhtlwx;[giJmeAW@iSkN^`VPPMpiG46iF52
     P21oJrv  C2021 11 04b\-95HtlEo1@,cYw8=8HHhu1v,!en^L-sO\uA[ERUK^?+61(YJJ/F52
     P21oJrv  C2021 11 10C[_O]%xAQ_nui!V4.2`FQk6Gurh^;JDDaIv(T6herev[1?6BTDTnF52
     P21oJrv  C2021 11 10E_9[!`P2hi'l3S6V5jle%X+9:.a_Gu:u,M=u.0.4cxkSi7no#dIpF52
     P21oJrv  C2021 11 10%1WXW9ZL4gy,-KvY#g2l$+;N.%Q%^c\#AnpV@+wsk9Z-VfBCSh^)F52
     P21oJrv  C2021 11 10*Fc[%GD$@duP*ZMWK@7X9nx5k+#GiaQjJ3Iq1evQOK[3+bjV)(hvF51
     P21oJrv  C2021 11 10Pf1uL4C;ut_ya/qsNG$XL`EWH6g+rU'u8wGM@=oVV?MOnNTnKW;DF51
     P21oJrv KC2021 11 11.46412208 07 41.41 +55 48 03.9    ~BBC7 21.70GVNEOCPI52
     P21oJrv KC2021 11 11.47026808 07 41.66 +55 48 10.7    ~BBC7 22.06GVNEOCPI52
     P21oJrv KC2021 11 11.47641408 07 41.85 +55 48 16.6    ~BBC7 22.21GVNEOCPI52
     P21oJrv KC2021 11 11.48256008 07 42.03 +55 48 22.5    ~BBC7 22.36GVNEOCPI52
     P21oJrv  C2021 11 11HgS)i(BgPIaGKV#'3CTk(pqfor(v9[8]]%jfos.6IWwJ].MduJ?7F52
     P21oJrv  C2021 11 11;!bf*cCa![x%eOxM?!_qKv%S`#Yks[S_?ZHu#wt^#9gU@-W%$\!]F52
     P21oJrv  C2021 11 11579u(20\KOpNlEQCsi2WVSd32BI4Yexplanation_Ppx%xd64i?^F52
     P21oJrv  C2021 11 11=1*I/#8/jo?C3,//VCh;M8m-71C%(Hg7%%oO@lL(ynC'aj4x!1WMF52

Station data:
(F51) Pan-STARRS 1, Haleakala  (N20.707235 W156.255910)  US/Hawaii.
   Observers N. Primak, A. Schultz, S. Watters, J. Thiel, T. Goggia. Measurer
   PS1 Science Consortium. 1.8-m Ritchey-Chrétien + CCD.
(F52) Pan-STARRS 2, Haleakala  (N20.707384 W156.255910)  US/Hawaii. 1.8-m
   Ritchey-Chrétien + CCD.
(I52) Steward Observatory, Mt. Lemmon Station  (N32.442547 W110.788920)
   US/Arizona.  Observers T. A. Pruyne, B. M. Africano, E. J. Christensen, G.
   A. Farneth, D. C. Fuls, A. R. Gibbs, A. D. Grauer, H. Gröller, J. A.
   Johnson, R. A. Kowalski, S. M. Larson, G. J. Leonard, D. Rankin, R. L.
   Seaman, F. C. Shelly. 1.0-m reflector + CCD.

Orbital elements:  P21oJrv
   Perihelion 2021 Jan 22.857971 +/- 0.31254 TT = 20:35:28 (JD 2459237.357971)
Epoch 2021 Nov 11.0 TT = JDT 2459529.5                        AutoNEOCP
M  68.27391859 +/- 0.1527482        (J2000 ecliptic)
n   0.23370111 +/- 0.000283093      Peri.  316.43708 +/- 0.1072790
a   2.61033065 +/- 0.00210741       Node    38.81264 +/- 0.0161832
e   0.2577634 +/- 0.000408545       Incl.   33.12626 +/- 0.0069262
P   4.22                   H 17.7   G  0.15   U  7.3  
q 1.93748293 +/- 0.000878924    Q 3.28317837 +/- 0.00359792
From 19 observations 2021 Oct. 18-Nov. 11; mean residual 0".21
Residuals in arcseconds: 
211018 F52  .44+  .31-    211110 F52  .04-  .15+    211111 I52  .09-  .14-    
211018 F52  .10-  .25+    211110 F52  .13-  .18+    211111 F52  .10+  .24+    
211018 F52  .35-  .07+    211110 F51  .02+  .15-    211111 F52  .20-  .01-    
211104 F52  .15-  .04+    211110 F51  .07-  .05+    211111 F52  .01-  .32+    
211104 F52  .09+  .09-    211111 I52  .06+  .61-    211111 F52  .28-  .18-    
211104 F52  .10+  .01-    211111 I52  .37+  .14+    
211110 F52  .04-  .25+    211111 I52  .18+  .00     

Ephemerides (geocentric):
Date (UTC) HH   RA              Dec         delta   r     elong  mag " sig PA
---- -- -- --  -------------   -----------  ------ ------ -----  --- ---- ---
2021 12 03 10  08 09 24.737   +61 51 54.87  1.8784 2.5900 126.6 22.1 2.82 118
2021 12 03 11  08 09 23.327   +61 52 35.12  1.8783 2.5902 126.6 22.1 2.83 118
2021 12 03 12  08 09 21.910   +61 53 15.34  1.8781 2.5903 126.7 22.1 2.84 118
2021 12 03 13  08 09 20.486   +61 53 55.56  1.8780 2.5904 126.7 22.1 2.85 118
2021 12 03 14  08 09 19.055   +61 54 35.76  1.8779 2.5905 126.7 22.1 2.86 118
2021 12 03 15  08 09 17.617   +61 55 15.95  1.8778 2.5906 126.7 22.1 2.86 118
2021 12 03 16  08 09 16.172   +61 55 56.12  1.8777 2.5907 126.7 22.1 2.87 118
2021 12 03 17  08 09 14.720   +61 56 36.28  1.8776 2.5909 126.8 22.1 2.88 118
2021 12 03 18  08 09 13.261   +61 57 16.43  1.8775 2.5910 126.8 22.1 2.89 118
2021 12 03 19  08 09 11.795   +61 57 56.56  1.8773 2.5911 126.8 22.1 2.90 118
2021 12 03 20  08 09 10.322   +61 58 36.68  1.8772 2.5912 126.8 22.1 2.91 118
2021 12 03 21  08 09 08.841   +61 59 16.79  1.8771 2.5913 126.9 22.1 2.91 118
2021 12 03 22  08 09 07.354   +61 59 56.88  1.8770 2.5914 126.9 22.1 2.92 118
2021 12 03 23  08 09 05.860   +62 00 36.95  1.8769 2.5915 126.9 22.1 2.93 118
2021 12 04 00  08 09 04.359   +62 01 17.01  1.8768 2.5917 126.9 22.1 2.94 118
2021 12 04 01  08 09 02.851   +62 01 57.06  1.8767 2.5918 126.9 22.1 2.95 118
2021 12 04 02  08 09 01.336   +62 02 37.10  1.8766 2.5919 127.0 22.1 2.96 118
2021 12 04 03  08 08 59.814   +62 03 17.11  1.8765 2.5920 127.0 22.1 2.96 118
2021 12 04 04  08 08 58.285   +62 03 57.12  1.8764 2.5921 127.0 22.1 2.97 118
2021 12 04 05  08 08 56.749   +62 04 37.11  1.8762 2.5922 127.0 22.1 2.98 118
2021 12 04 06  08 08 55.206   +62 05 17.08  1.8761 2.5923 127.1 22.1 2.99 118
2021 12 04 07  08 08 53.655   +62 05 57.04  1.8760 2.5925 127.1 22.1 3.00 118
2021 12 04 08  08 08 52.098   +62 06 36.99  1.8759 2.5926 127.1 22.1 3.00 118
2021 12 04 09  08 08 50.534   +62 07 16.92  1.8758 2.5927 127.1 22.1 3.01 118
2021 12 04 10  08 08 48.962   +62 07 56.84  1.8757 2.5928 127.1 22.1 3.02 118
2021 12 04 11  08 08 47.384   +62 08 36.74  1.8756 2.5929 127.2 22.1 3.03 118
2021 12 04 12  08 08 45.799   +62 09 16.62  1.8755 2.5930 127.2 22.1 3.04 118
2021 12 04 13  08 08 44.206   +62 09 56.49  1.8754 2.5932 127.2 22.1 3.05 118
2021 12 04 14  08 08 42.607   +62 10 36.35  1.8753 2.5933 127.2 22.1 3.05 118
2021 12 04 15  08 08 41.000   +62 11 16.19  1.8752 2.5934 127.3 22.1 3.06 117
2021 12 04 16  08 08 39.386   +62 11 56.01  1.8751 2.5935 127.3 22.1 3.07 117
2021 12 04 17  08 08 37.765   +62 12 35.82  1.8750 2.5936 127.3 22.1 3.08 117
2021 12 04 18  08 08 36.138   +62 13 15.62  1.8749 2.5937 127.3 22.1 3.09 117
2021 12 04 19  08 08 34.503   +62 13 55.40  1.8748 2.5938 127.3 22.1 3.10 117
2021 12 04 20  08 08 32.861   +62 14 35.16  1.8747 2.5940 127.4 22.1 3.11 117
2021 12 04 21  08 08 31.212   +62 15 14.91  1.8746 2.5941 127.4 22.1 3.11 117
2021 12 04 22  08 08 29.555   +62 15 54.64  1.8745 2.5942 127.4 22.1 3.12 117
2021 12 04 23  08 08 27.892   +62 16 34.36  1.8744 2.5943 127.4 22.1 3.13 117
2021 12 05 00  08 08 26.222   +62 17 14.06  1.8742 2.5944 127.5 22.1 3.14 117
2021 12 05 01  08 08 24.544   +62 17 53.74  1.8741 2.5945 127.5 22.1 3.15 117
2021 12 05 02  08 08 22.860   +62 18 33.41  1.8740 2.5947 127.5 22.1 3.16 117
2021 12 05 03  08 08 21.168   +62 19 13.07  1.8739 2.5948 127.5 22.1 3.16 117
2021 12 05 04  08 08 19.470   +62 19 52.70  1.8738 2.5949 127.5 22.1 3.17 117
2021 12 05 05  08 08 17.764   +62 20 32.32  1.8737 2.5950 127.6 22.1 3.18 117
2021 12 05 06  08 08 16.051   +62 21 11.93  1.8736 2.5951 127.6 22.1 3.19 117
2021 12 05 07  08 08 14.331   +62 21 51.52  1.8735 2.5952 127.6 22.1 3.20 117
2021 12 05 08  08 08 12.604   +62 22 31.09  1.8734 2.5953 127.6 22.1 3.21 117
2021 12 05 09  08 08 10.869   +62 23 10.65  1.8733 2.5955 127.7 22.1 3.22 117